INTERCOSMOS 25 (21819 NORAD) Tracking and Keplerian Element Data

This shows tracking and keplerian element data for the satellite.

Feedback or suggestion? Click here.




ElementValue
Catalog21819
NameINTERCOSMOS 25
Epoch Orbit17486
Epoch Day322.89241828
Epoch Year2018
RAAN111.4782
Inclination82.5925
Eccentricity0.1517649
Argument of Perigee60.2999
Mean Anonmoly314.0491
Mean Motion12.04967831
Decay Rate1.75E-06
L11 21819U 91086A 18322.89241828 .00000175 00000-0 28105-4 0 9996
L22 21819 82.5925 111.4782 1517649 60.2999 314.0491 12.04967831174865

Live tracking and technical data element details for INTERCOSMOS 25 (NORAD 21819). INTERCOSMOS 25 can be tracked NOW for your location showing map with azimuth and elevation plus other details from your city location.

Track the satellite on the map from your city or location and see movement details for azimuth, elevation, latitude, longitude, range, height, and movement on the map or in text.







IsCatalogInMostPopularTable: catalog: 21819, numindb: 51
Update: records affected: 1



GetName: 21819 INTERCOSMOS 25

Hit Count: updated at: Mon, 19 Nov 2018 23:36:14 GMT